User: anonymous
Location: Santa Barbara
(34.4500°N, 119.7700°W)
Time: 00:41:26
(UTC-07:00)
Language:

Cosmos 1892 Rocket - Orbit

View from above orbital plane
View from above orbital plane
View from above satellite
View from above satellite

Ground track
Ground track

The orbit data is extracted from the following two-line orbital elements,

1 18422U 87088B   14112.31992744  .00000512  00000-0  61026-4 0  2165
2 18422 082.5125 175.8768 0018295 270.7742 133.3505 14.82343975431136
Epoch (UTC): 22 April 2014 07:40:41
Eccentricity: 0.0018295
inclination: 82.5125°
perigee height: 609 km
apogee height: 635 km
right ascension of ascending node: 175.8768°
argument of perigee: 270.7742°
revolutions per day: 14.82343975
mean anomaly at epoch: 133.3505°
orbit number at epoch: 43113

The dashed part of the orbit path shows where the satellite is in the earth's shadow,  

DLR